This demonstration page uses our WeatherBlox Daily Observations layout. Learn more.

Left ArrowRight Arrow

Hourly Observations for September 4, 2017

Temp ( °F °C ) Dew Point ( °F °C ) Humidity (%) Winds ( mph kmh ) Pressure ( in mb ) Visibility ( mi km ) Precip ( " mm )
12:54 am 00:54 Clear 79 26.1 63 17.2 58 58 SSW 13 20 29.82 1010 10 16.0934 0 0
1:54 am 01:54 Clear 78 25.6 64 17.8 62 62 SW 10 17 29.81 1010 10 16.0934 0 0
2:54 am 02:54 Clear 75 23.9 64 17.8 69 69 W 8 13 29.83 1010 10 16.0934 0 0
3:54 am 03:54 Clear 74 23.3 65 18.3 74 74 SW 7 11 29.82 1010 10 16.0934 0 0
4:54 am 04:54 Clear 71 21.7 65 18.3 81 81 W 7 11 29.83 1010 10 16.0934 0 0
5:54 am 05:54 Mostly Clear 70 21.1 63 17.2 79 79 W 7 11 29.84 1011 9 14.48406 0 0
6:54 am 06:54 Clear 68 20 60 15.6 76 76 NW 6 9 29.85 1011 7 11.26538 0 0
7:54 am 07:54 Hazy 67 19.4 59 15 76 76 NW 6 9 29.88 1012 5 8.0467 0 0
8:52 am 08:52 Mostly Cloudy with Haze 68 20 61 16 78 78 N 13 20 29.91 1013 6 9.65604 0 0
8:54 am 08:54 Mostly Cloudy with Haze 68 20 62 16.7 81 81 N 13 20 29.91 1013 6 9.65604 0 0
9:25 am 09:25 Partly Cloudy 70 21.1 63 17.2 79 79 N 13 20 29.94 1014 7 11.26538 0 0
9:54 am 09:54 Sunny 72 22.2 61 16.1 68 68 N 15 24 29.94 1014 8 12.87472 0 0
10:54 am 10:54 Sunny 75 23.9 59 15 58 58 N 15 24 29.96 1015 10 16.0934 0 0
11:54 am 11:54 Sunny 75 23.9 58 14.4 55 55 N 14 22 29.97 1015 10 16.0934 0 0
12:54 pm 12:54 Sunny 74 23.3 58 14.4 57 57 N 13 20 29.98 1015 10 16.0934 0 0
1:54 pm 13:54 Sunny 76 24.4 56 13.3 50 50 N 12 19 29.99 1016 10 16.0934 0 0
2:54 pm 14:54 Sunny 79 26.1 55 12.8 44 44 N 14 22 29.98 1015 10 16.0934 0 0
3:54 pm 15:54 Sunny 78 25.6 54 12.2 43 43 N 15 24 29.99 1016 10 16.0934 0 0
4:54 pm 16:54 Sunny 78 25.6 56 13.3 47 47 N 10 17 30 1016 10 16.0934 0 0
5:54 pm 17:54 Sunny 76 24.4 56 13.3 50 50 N 10 17 30.01 1016 10 16.0934 0 0
6:54 pm 18:54 Sunny 73 22.8 56 13.3 55 55 N 12 19 30.02 1017 10 16.0934 0 0
7:54 pm 19:54 Sunny 71 21.7 57 13.9 61 61 NNW 10 17 30.04 1017 10 16.0934 0 0
8:54 pm 20:54 Clear 68 20 56 13.3 65 65 N 10 17 30.07 1018 10 16.0934 0 0
9:54 pm 21:54 Clear 66 18.9 54 12.2 65 65 WNW 6 9 30.09 1019 10 16.0934 0 0
10:54 pm 22:54 Clear 64 17.8 55 12.8 73 73 NW 7 11 30.11 1020 10 16.0934 0 0
11:54 pm 23:54 Clear 63 17.2 54 12.2 73 73 NNW 8 13 30.12 1020 10 16.0934 0 0

Powered by AerisWeather